{"data":{"norad_id":68181,"intl_designator":"2026-050Q","name":"STARLINK-37032","alt_names":[],"object_type":"PAYLOAD","status":"ACTIVE","operator":null,"country":"US","launch_date":"2026-03-14","launch_site_code":"AFETR","launch_vehicle":null,"mission":null,"orbit_class":"UNKNOWN","rcs_meters":null,"size_class":null,"mass_kg":null,"dimensions":null,"purposes":["comms"],"wikipedia_slug":null,"has_3d_model":false,"image_url":null,"decayed_at":null,"tle_current":{"epoch":"2026-05-24T15:17:49.998336Z","epoch_age_seconds":102439,"freshness":"FRESH","line1":"1 68181U 26050Q   26144.63738424  .00045867  00000+0  11789-2 0  9998","line2":"2 68181  53.1585 273.8026 0001113  70.4772 289.6352 15.38855205 12318","mean_motion":15.38855205,"eccentricity":0.0001113,"inclination_deg":53.1585,"raan_deg":273.8026,"arg_perigee_deg":70.4772,"mean_anomaly_deg":289.6352,"bstar":0.0011789,"rev_number":1231,"period_min":93.576055454808,"perigee_km":448.73347451358,"apogee_km":450.25330503834,"semimajor_km":6827.630389776,"source":"CELESTRAK","updated_at":"2026-05-25T13:38:21.855214Z"}}}